Location: Aiyekoto
(8.4333°N, 4.3667°E)
Time: 12:20:04
(UTC+00:00)

ADEOS - Pass Details

Date: 10 October 2020
Orbit: 792 x 794 km, 98.9° (Epoch: 27 October)

Event Time Altitude Azimuth Distance (km) Brightness Sun altitude
Rises 03:29:52 0° 22° (NNE) 3,280 7.0 -30.5°
Reaches altitude 10° 03:32:15 10° 27° (NNE) 2,352 6.3 -29.9°
Maximum altitude 03:37:17 51° 102° (ESE) 993 4.3 -28.6°
Drops below altitude 10° 03:42:19 10° 177° (S) 2,356 6.1 -27.4°
Sets 03:44:42 0° 182° (S) 3,286 6.8 -26.8°
